When you browse on this site, cookies collect data to enhance your experience and personalize the content and advertising you see.
Visit our Privacy Policy to learn more. By continuing to use the site, you agree to this use of cookies and data.
  • In Austria
  • List of Countries
  • For 7 days
  • Water Temperature
  • Weather Map
  • News
  • Weather Widgets
  • user-avatar
    Login

    Hourly Weather La Rioja

    Today, 27 January, Monday

    Time Temperature Precipitation Wind Pressure Humidity
    00:00 +30°C° 0.4 mm 3 mps 716 mmHg 51%
    01:00 +29°C° 0.4 mm 3 mps 716 mmHg 53%
    02:00 +28°C° 0.4 mm 4 mps 715 mmHg 56%
    03:00 +28°C° 0.2 mm 3 mps 715 mmHg 58%
    04:00 +27°C° 0.2 mm 3 mps 715 mmHg 61%
    05:00 +26°C° 0.2 mm 3 mps 715 mmHg 64%
    06:00 +26°C° 0.7 mm 2 mps 716 mmHg 65%
    07:00 +26°C° 0.7 mm 2 mps 716 mmHg 65%
    08:00 +26°C° 0.7 mm 2 mps 716 mmHg 66%
    09:00 +27°C° 0.3 mm 2 mps 716 mmHg 61%
    10:00 +28°C° 0.3 mm 3 mps 716 mmHg 55%
    11:00 +29°C° 0.3 mm 3 mps 716 mmHg 50%
    12:00 +31°C° 0.1 mm 3 mps 716 mmHg 47%
    13:00 +33°C° 0.1 mm 4 mps 715 mmHg 43%
    14:00 +34°C° 0.1 mm 4 mps 715 mmHg 40%
    15:00 +34°C° 0 mm 4 mps 714 mmHg 39%
    16:00 +34°C° 0 mm 5 mps 713 mmHg 39%
    17:00 +34°C° 0 mm 5 mps 713 mmHg 39%
    18:00 +33°C° 0 mm 4 mps 713 mmHg 40%
    19:00 +33°C° 0 mm 4 mps 713 mmHg 42%
    20:00 +32°C° 0 mm 4 mps 713 mmHg 43%
    21:00 +30°C° 0.1 mm 3 mps 713 mmHg 48%
    22:00 +29°C° 0.1 mm 3 mps 714 mmHg 53%
    23:00 +28°C° 0.1 mm 3 mps 714 mmHg 57%

    Tomorrow, 28 January, Tuesday

    Time Temperature Precipitation Wind Pressure Humidity
    00:00 +28°C° 0 mm 2 mps 713 mmHg 59%
    01:00 +27°C° 0 mm 1 mps 713 mmHg 61%
    02:00 +27°C° 0 mm 1 mps 712 mmHg 64%
    03:00 +27°C° 0 mm 1 mps 712 mmHg 64%
    04:00 +27°C° 0 mm 1 mps 711 mmHg 65%
    05:00 +26°C° 0 mm 1 mps 711 mmHg 66%
    06:00 +27°C° 0 mm 1 mps 711 mmHg 62%
    07:00 +28°C° 0 mm 1 mps 711 mmHg 58%
    08:00 +28°C° 0 mm 1 mps 711 mmHg 55%
    09:00 +30°C° 0 mm 1 mps 711 mmHg 51%
    10:00 +31°C° 0 mm 2 mps 711 mmHg 47%
    11:00 +32°C° 0 mm 2 mps 710 mmHg 43%
    12:00 +35°C° 0 mm 2 mps 710 mmHg 40%
    13:00 +36°C° 0 mm 2 mps 709 mmHg 37%
    14:00 +37°C° 0 mm 2 mps 708 mmHg 34%
    15:00 +37°C° 0 mm 2 mps 707 mmHg 33%
    16:00 +38°C° 0 mm 3 mps 707 mmHg 32%
    17:00 +38°C° 0 mm 3 mps 706 mmHg 32%
    18:00 +36°C° 0.6 mm 3 mps 706 mmHg 36%
    19:00 +35°C° 0.6 mm 4 mps 707 mmHg 40%
    20:00 +33°C° 0.6 mm 5 mps 707 mmHg 44%
    21:00 +33°C° 0.1 mm 4 mps 707 mmHg 43%
    22:00 +31°C° 0.1 mm 3 mps 707 mmHg 42%
    23:00 +31°C° 0.1 mm 2 mps 708 mmHg 41%

    Day after tomorrow, 29 January, Wednesday

    Time Temperature Precipitation Wind Pressure Humidity
    00:00 +30°C° 0 mm 2 mps 707 mmHg 42%
    01:00 +29°C° 0 mm 2 mps 707 mmHg 44%
    02:00 +28°C° 0 mm 1 mps 706 mmHg 45%
    03:00 +27°C° 0 mm 4 mps 707 mmHg 53%
    04:00 +26°C° 0 mm 6 mps 708 mmHg 61%
    05:00 +26°C° 0 mm 9 mps 709 mmHg 69%
    06:00 +24°C° 0.6 mm 8 mps 710 mmHg 73%
    07:00 +23°C° 0.6 mm 7 mps 711 mmHg 78%
    08:00 +22°C° 0.6 mm 6 mps 713 mmHg 82%
    09:00 +22°C° 1 mm 5 mps 713 mmHg 81%
    10:00 +22°C° 1 mm 4 mps 714 mmHg 80%
    11:00 +22°C° 1 mm 3 mps 714 mmHg 80%
    12:00 +24°C° 0.3 mm 3 mps 714 mmHg 74%
    13:00 +25°C° 0.3 mm 2 mps 714 mmHg 69%
    14:00 +26°C° 0.3 mm 1 mps 714 mmHg 63%
    15:00 +27°C° 0 mm 1 mps 714 mmHg 60%
    16:00 +28°C° 0 mm 1 mps 713 mmHg 56%
    17:00 +28°C° 0 mm 2 mps 713 mmHg 52%
    18:00 +28°C° 0 mm 1 mps 713 mmHg 56%
    19:00 +27°C° 0 mm 1 mps 713 mmHg 59%
    20:00 +26°C° 0 mm 1 mps 714 mmHg 63%
    21:00 +26°C° 0 mm 1 mps 714 mmHg 62%
    22:00 +26°C° 0 mm 1 mps 715 mmHg 61%
    23:00 +26°C° 0 mm 2 mps 716 mmHg 61%

    30 January, Thursday

    Time Temperature Precipitation Wind Pressure Humidity
    00:00 +25°C° 0 mm 1 mps 715 mmHg 61%
    01:00 +25°C° 0 mm 1 mps 715 mmHg 62%
    02:00 +23°C° 0 mm 0 mps 715 mmHg 63%
    03:00 +24°C° 0 mm 1 mps 715 mmHg 62%
    04:00 +24°C° 0 mm 1 mps 715 mmHg 62%
    05:00 +24°C° 0 mm 1 mps 715 mmHg 62%
    06:00 +25°C° 0 mm 1 mps 715 mmHg 58%
    07:00 +26°C° 0 mm 1 mps 716 mmHg 54%
    08:00 +27°C° 0 mm 2 mps 716 mmHg 50%
    09:00 +29°C° 0 mm 2 mps 716 mmHg 46%
    10:00 +30°C° 0 mm 2 mps 716 mmHg 42%
    11:00 +31°C° 0 mm 3 mps 716 mmHg 38%
    12:00 +33°C° 0 mm 3 mps 715 mmHg 35%
    13:00 +34°C° 0 mm 3 mps 714 mmHg 33%
    14:00 +35°C° 0 mm 4 mps 714 mmHg 31%
    15:00 +35°C° 0 mm 4 mps 713 mmHg 30%
    16:00 +35°C° 0 mm 4 mps 712 mmHg 29%
    17:00 +35°C° 0 mm 4 mps 712 mmHg 28%
    18:00 +34°C° 0 mm 3 mps 712 mmHg 31%
    19:00 +33°C° 0 mm 3 mps 712 mmHg 34%
    20:00 +30°C° 0 mm 3 mps 712 mmHg 38%
    21:00 +30°C° 0 mm 2 mps 712 mmHg 41%
    22:00 +29°C° 0 mm 2 mps 713 mmHg 44%
    23:00 +28°C° 0 mm 1 mps 713 mmHg 48%

    31 January, Friday

    Time Temperature Precipitation Wind Pressure Humidity
    00:00 +27°C° 0 mm 1 mps 713 mmHg 49%
    01:00 +27°C° 0 mm 1 mps 713 mmHg 51%
    02:00 +26°C° 0 mm 1 mps 713 mmHg 53%
    03:00 +26°C° 0 mm 1 mps 713 mmHg 53%
    04:00 +25°C° 0 mm 1 mps 713 mmHg 54%
    05:00 +25°C° 0 mm 1 mps 713 mmHg 55%
    06:00 +26°C° 0 mm 1 mps 713 mmHg 51%
    07:00 +27°C° 0 mm 1 mps 714 mmHg 48%
    08:00 +28°C° 0 mm 2 mps 714 mmHg 44%
    09:00 +29°C° 0 mm 2 mps 714 mmHg 42%
    10:00 +31°C° 0 mm 2 mps 714 mmHg 39%
    11:00 +32°C° 0 mm 2 mps 714 mmHg 37%
    12:00 +34°C° 0 mm 2 mps 714 mmHg 34%
    13:00 +35°C° 0 mm 2 mps 713 mmHg 31%
    14:00 +36°C° 0 mm 2 mps 713 mmHg 28%
    15:00 +37°C° 0 mm 3 mps 712 mmHg 27%
    16:00 +37°C° 0 mm 3 mps 712 mmHg 26%
    17:00 +38°C° 0 mm 3 mps 711 mmHg 25%
    18:00 +36°C° 0 mm 3 mps 711 mmHg 28%
    19:00 +34°C° 0 mm 2 mps 711 mmHg 31%
    20:00 +32°C° 0 mm 2 mps 712 mmHg 34%
    21:00 +31°C° 0 mm 2 mps 712 mmHg 36%
    22:00 +30°C° 0 mm 2 mps 712 mmHg 37%
    23:00 +30°C° 0 mm 2 mps 713 mmHg 39%

    1 February, Saturday

    Time Temperature Precipitation Wind Pressure Humidity
    00:00 +29°C° 0 mm 2 mps 712 mmHg 41%
    01:00 +29°C° 0 mm 1 mps 712 mmHg 43%
    02:00 +28°C° 0 mm 1 mps 712 mmHg 45%
    03:00 +27°C° 0 mm 1 mps 712 mmHg 46%
    04:00 +27°C° 0 mm 1 mps 712 mmHg 47%
    05:00 +26°C° 0 mm 1 mps 711 mmHg 49%
    06:00 +28°C° 0 mm 2 mps 711 mmHg 45%
    07:00 +29°C° 0 mm 2 mps 712 mmHg 42%
    08:00 +30°C° 0 mm 2 mps 712 mmHg 39%
    09:00 +31°C° 0 mm 2 mps 711 mmHg 37%
    10:00 +32°C° 0 mm 2 mps 711 mmHg 34%
    11:00 +35°C° 0 mm 2 mps 711 mmHg 31%
    12:00 +36°C° 0 mm 2 mps 710 mmHg 29%
    13:00 +37°C° 0 mm 2 mps 709 mmHg 28%
    14:00 +38°C° 0 mm 2 mps 708 mmHg 26%
    15:00 +39°C° 0.1 mm 2 mps 707 mmHg 25%
    16:00 +39°C° 0.1 mm 2 mps 706 mmHg 24%
    17:00 +39°C° 0.1 mm 3 mps 705 mmHg 24%
    18:00 +38°C° 0.1 mm 3 mps 706 mmHg 27%
    19:00 +37°C° 0.1 mm 4 mps 706 mmHg 30%
    20:00 +35°C° 0.1 mm 5 mps 706 mmHg 34%
    21:00 +35°C° 0 mm 3 mps 707 mmHg 36%
    22:00 +34°C° 0 mm 2 mps 707 mmHg 39%
    23:00 +32°C° 0 mm 1 mps 708 mmHg 41%
    Show more